CW7944 Weather Reports


Display with metric or nautical units.
time (UTC)temp
F
wind
direction
speed
MPH
gust
MPH
rain 1hr
in
rain 24hr
in
rain mn
in
humidity
%
barometer
mb
20210917221608 69 199 0.0 0.0 0.00 0.00 0.00 40 1014.4
20210917220028 68 51 1.0 0.0 0.00 0.00 0.00 42 1014.0
20210917214523 68 158 0.0 0.0 0.00 0.00 0.00 42 1013.9
20210917213041 68 74 0.0 0.0 0.00 0.00 0.00 42 1013.9
20210917211523 67 78 1.0 0.0 0.00 0.00 0.00 44 1014.4
20210917210041 66 70 0.0 0.0 0.00 0.00 0.00 45 1013.8
20210917204607 66 107 0.0 0.0 0.00 0.00 0.00 45 1014.0
20210917203029 65 62 0.0 0.0 0.00 0.00 0.00 45 1014.5
20210917201527 65 355 1.0 0.0 0.00 0.00 0.00 43 1014.6
20210917200022 65 92 0.0 0.0 0.00 0.00 0.00 45 1014.3
20210917194529 63 148 0.0 0.0 0.00 0.00 0.00 47 1014.6
20210917193026 63 124 0.0 0.0 0.00 0.00 0.00 46 1015.1
20210917191519 62 173 0.0 0.0 0.00 0.00 0.00 47 1015.2
20210917190040 61 51 0.0 0.0 0.00 0.00 0.00 48 1014.6
20210917184607 61 90 0.0 0.0 0.00 0.00 0.00 49 1014.9
20210917183043 60 326 0.0 0.0 0.00 0.00 0.00 48 1015.1
20210917181515 59 40 0.0 0.0 0.00 0.00 0.00 50 1015.7
20210917180018 58 21 0.0 0.0 0.00 0.00 0.00 53 1015.3
20210917174523 57 347 1.0 0.0 0.00 0.00 0.00 54 1015.3
20210917173020 56 49 0.0 0.0 0.00 0.00 0.00 55 1015.7
20210917171541 56 110 0.0 0.0 0.00 0.00 0.00 57 1016.4
20210917170017 55 11 0.0 0.0 0.00 0.00 0.00 58 1016.4
20210917164512 54 344 0.0 0.0 0.00 0.00 0.00 59 1016.5
20210917163013 53 58 0.0 0.0 0.00 0.00 0.00 61 1017.0
20210917161512 51 32 0.0 0.0 0.00 0.00 0.00 62 1017.4
20210917160028 51 29 0.0 0.0 0.00 0.00 0.00 63 1017.4
20210917154532 50 103 0.0 0.0 0.00 0.00 0.00 63 1017.4
20210917153009 50 111 0.0 0.0 0.00 0.00 0.00 63 1017.3
20210917151510 50 63 0.0 0.0 0.00 0.00 0.00 65 1017.4
20210917150022 49 110 0.0 0.0 0.00 0.00 0.00 66 1017.4
20210917144521 49 19 0.0 0.0 0.00 0.00 0.00 66 1017.4
20210917143025 49 35 0.0 0.0 0.00 0.00 0.00 67 1017.3
20210917141513 49 42 0.0 0.0 0.00 0.00 0.00 68 1017.3
20210917140021 48 32 0.0 0.0 0.00 0.00 0.00 69 1017.3
20210917134512 48 31 0.0 0.0 0.00 0.00 0.00 69 1017.1
20210917133005 48 34 0.0 0.0 0.00 0.00 0.00 70 1017.1
20210917131504 47 349 0.0 0.0 0.00 0.00 0.00 71 1017.4
20210917130004 47 349 0.0 0.0 0.00 0.00 0.00 71 1017.2
20210917124515 46 349 0.0 0.0 0.00 0.00 0.00 72 1016.9
20210917123003 46 349 0.0 0.0 0.00 0.00 0.00 73 1016.9
20210917121659 44 349 0.0 0.0 0.00 0.00 0.00 76 1017.1
20210917121505 44 349 0.0 0.0 0.00 0.00 0.00 76 1017.1
20210917114645 44 349 0.0 0.0 0.00 0.00 0.00 75 1015.7
20210917113212 45 18 0.0 0.0 0.00 0.00 0.00 73 1015.5
20210917111622 46 16 0.0 0.0 0.00 0.00 0.00 72 1015.3
20210917110102 46 340 0.0 0.0 0.00 0.00 0.00 71 1014.6
20210917104625 47 130 0.0 0.0 0.00 0.00 0.00 70 1014.3
20210917103222 48 166 0.0 0.0 0.00 0.00 0.00 68 1013.9
20210917101716 49 96 0.0 0.0 0.00 0.00 0.00 66 1013.1
20210917100120 50 348 0.0 0.0 0.00 0.00 0.00 64 1012.3
20210917094556 51 77 1.0 0.0 0.00 0.00 0.00 63 1011.8
20210917093036 53 103 0.0 0.0 0.00 0.00 0.00 62 1010.8
20210917091533 55 337 0.0 0.0 0.00 0.00 0.00 61 1010.2
20210917090025 56 14 0.0 0.0 0.00 0.00 0.00 59 1008.9
20210917084524 57 334 0.0 0.0 0.00 0.00 0.00 58 1008.5
20210917083019 58 94 0.0 0.0 0.00 0.00 0.00 56 1008.0
20210917081553 59 46 1.0 0.0 0.00 0.00 0.00 55 1007.7
20210917080020 59 347 1.0 0.0 0.00 0.00 0.00 53 1006.9
20210917074511 60 340 2.0 0.0 0.00 0.00 0.00 50 1006.6
20210917073008 62 324 2.0 0.0 0.00 0.00 0.00 47 1005.9
20210917071502 63 10 3.0 0.0 0.00 0.00 0.00 44 1004.9
20210917070151 64 311 1.0 0.0 0.00 0.00 0.00 41 1003.6
20210917064558 65 60 1.0 0.0 0.00 0.00 0.00 37 1002.1
20210917063127 67 344 1.0 0.0 0.00 0.00 0.00 34 1001.6
20210917061603 69 305 2.0 0.0 0.00 0.00 0.00 29 1000.2
20210917060214 71 252 0.0 0.0 0.00 0.00 0.00 17 998.9
20210917054553 72 217 0.0 0.0 0.00 0.00 0.00 17 998.2
20210917053127 72 275 0.0 0.0 0.00 0.00 0.00 17 997.9
20210917051629 72 255 0.0 0.0 0.00 0.00 0.00 17 997.8
20210917050040 72 174 0.0 0.0 0.00 0.00 0.00 18 998.3
20210917044550 71 196 0.0 0.0 0.00 0.00 0.00 18 998.0
20210917043119 72 277 0.0 0.0 0.00 0.00 0.00 18 997.6
20210917041611 73 224 0.0 0.0 0.00 0.00 0.00 17 997.5
20210917040052 74 126 0.0 0.0 0.00 0.00 0.00 17 997.6
20210917034615 75 281 0.0 0.0 0.00 0.00 0.00 16 997.4
20210917033049 76 306 0.0 0.0 0.00 0.00 0.00 17 996.9
20210917031629 76 325 0.0 0.0 0.00 0.00 0.00 18 996.7
20210917030054 75 217 0.0 0.0 0.00 0.00 0.00 18 997.8
20210917024606 76 287 0.0 0.0 0.00 0.00 0.00 18 997.4
20210917023120 74 233 0.0 0.0 0.00 0.00 0.00 18 997.5
20210917021636 75 262 0.0 0.0 0.00 0.00 0.00 18 997.1
20210917020043 75 193 0.0 0.0 0.00 0.00 0.00 18 997.3
20210917014609 75 284 0.0 0.0 0.00 0.00 0.00 18 997.1
20210917013143 75 207 0.0 0.0 0.00 0.00 0.00 18 996.7
20210917011611 75 207 0.0 0.0 0.00 0.00 0.00 18 996.5
20210917010118 76 207 0.0 0.0 0.00 0.00 0.00 18 997.0
20210917004614 76 250 0.0 0.0 0.00 0.00 0.00 19 997.0
20210917003044 77 325 0.0 0.0 0.00 0.00 0.00 20 996.8
20210917001547 78 325 0.0 0.0 0.00 0.00 0.00 19 996.4
20210917000102 80 346 0.0 0.0 0.00 0.00 0.00 20 996.1
20210916234638 82 346 0.0 0.0 0.00 0.00 0.00 19 995.5
20210916233056 82 19 0.0 0.0 0.00 0.00 0.00 19 995.3
20210916231537 82 22 0.0 0.0 0.00 0.00 0.00 20 995.3
20210916230057 81 349 0.0 0.0 0.00 0.00 0.00 22 994.9
20210916224708 82 100 0.0 0.0 0.00 0.00 0.00 20 994.7
20210916223028 82 18 0.0 0.0 0.00 0.00 0.00 17 994.5